RH
14 16 17 17 17 16 17 18 19 19 19 19 19 19 18 17 17 15 14 14 13 13 12 11 11 8 6 5 5 5 5 5 5 5 5 6 5 5 5 6 6 7 7 7 9 11 12 12 12 12 11 11 11 12 12 13 14 16 17 18 18 17 17 17 18 18 18 19 19 19 19 19 19 19 20 20 21 23 24 26 28 30 32 33 34 36
18 19 19 20 20 19 20 20 19 19 18 17 16 16 15 14 13 12 11 11 10 10 10 10 10 8 7 6 7 7 6 6 6 6 6 6 6 6 7 7 8 8 8 10 13 14 15 14 14 14 13 13 13 15 17 19 20 21 21 21 20 20 21 21 22 22 22 22 22 22 23 23 23 22 22 22 23 26 27 29 31 34 36 36 38 40
20 20 20 20 19 19 18 17 16 15 13 13 12 11 10 9 9 8 7 7 6 6 6 6 6 8 9 9 9 9 9 9 8 8 7 7 7 7 9 9 10 11 11 13 15 15 15 15 15 16 17 18 20 23 26 28 27 26 25 24 24 24 24 25 26 25 25 25 25 25 26 26 26 24 24 24 26 28 29 33 36 38 39 39 42 44
19 18 17 17 15 15 14 12 11 10 9 8 7 6 5 4 4 3 3 3 3 3 3 3 3 5 8 9 12 12 11 12 12 11 10 10 10 10 11 12 12 14 16 16 15 16 15 16 17 19 23 25 26 28 28 29 29 29 29 28 28 27 28 28 28 27 26 27 27 27 27 27 28 27 27 27 29 31 33 38 41 41 43 43 46 49
15 14 13 12 10 9 8 7 6 5 4 3 3 3 2 2 2 2 2 2 3 3 3 3 2 4 6 8 13 15 14 14 13 12 12 12 12 13 14 16 17 18 19 19 20 22 23 24 24 25 27 28 28 28 28 29 30 32 32 31 31 30 29 28 27 27 26 28 28 28 28 28 29 29 29 31 32 34 37 43 47 47 47 48 52 56
10 9 8 6 5 4 4 3 3 2 3 2 3 3 2 3 3 3 3 2 3 3 3 3 2 4 5 6 11 15 12 11 11 12 13 14 15 17 20 21 22 21 20 23 27 32 34 35 35 32 31 29 29 30 30 31 32 32 31 31 31 29 29 29 28 29 28 29 29 29 31 31 32 32 32 33 33 36 41 46 51 52 54 56 59 63
5 4 4 3 3 3 2 3 3 3 3 3 3 3 3 3 3 3 3 3 3 3 3 3 3 3 4 7 11 11 9 11 14 16 17 21 24 25 26 25 24 23 25 31 36 39 38 38 37 35 35 34 33 32 32 31 30 30 29 28 29 29 30 31 31 31 30 30 32 33 35 36 36 36 35 36 36 39 44 49 54 56 59 63 67 71
3 3 2 3 3 3 3 3 3 3 3 3 4 4 4 4 4 4 3 3 3 2 3 3 3 3 2 7 9 8 11 15 19 22 25 29 31 30 30 30 29 30 33 37 39 38 36 35 35 34 35 35 34 32 30 29 28 28 28 29 30 32 34 35 35 35 34 34 36 38 40 40 40 39 38 38 39 43 48 52 57 58 61 67 73 80
3 3 3 3 3 3 4 4 4 4 4 4 4 4 4 4 4 3 3 3 3 3 3 2 3 2 2 10 12 7 12 17 20 26 30 30 30 31 35 39 40 39 39 39 37 36 35 35 35 35 37 39 40 41 41 41 41 42 43 43 44 45 45 43 41 39 38 38 40 42 44 44 43 41 40 41 43 48 52 57 61 62 65 71 80 88
3 3 4 4 4 5 5 5 5 5 5 5 5 5 5 4 4 3 3 3 3 3 3 2 3 2 3 11 12 6 7 11 13 17 20 23 27 32 41 50 54 53 53 54 52 51 50 51 53 55 58 62 64 68 69 68 67 66 66 68 71 74 74 72 67 59 52 46 43 45 47 49 48 46 46 47 48 55 60 61 64 65 69 78 87 94
4 5 5 5 5 6 6 6 6 6 6 6 5 5 4 4 3 3 3 3 3 3 3 3 3 3 4 8 10 7 5 5 6 8 11 16 20 23 28 36 42 45 45 46 47 48 50 53 57 60 62 65 67 70 72 70 68 67 68 72 78 81 78 77 77 75 74 72 66 64 64 62 61 59 56 53 58 76 83 76 70 71 75 81 89 95
6 6 6 7 7 7 7 7 6 6 6 6 5 5 4 4 3 3 3 3 3 3 4 3 3 4 5 7 12 11 7 6 6 7 8 9 10 10 11 15 21 26 24 23 26 29 32 36 41 44 44 44 44 45 46 45 45 45 45 47 49 47 42 41 45 51 60 68 70 75 85 91 89 81 74 69 75 93 100 92 84 82 84 88 92 96
8 8 8 8 8 8 8 8 7 6 6 5 5 4 4 4 3 3 3 3 4 4 4 4 4 4 5 8 10 8 7 9 7 6 6 5 6 7 7 9 13 16 14 13 15 15 17 19 21 22 21 21 20 19 20 19 19 19 18 18 17 16 16 16 19 22 28 34 36 46 67 89 100 98 93 87 87 96 99 97 95 94 95 97 99 100
10 9 10 10 9 10 9 8 7 6 5 5 4 4 5 5 4 4 5 5 5 4 4 4 4 5 6 7 8 6 8 9 8 8 7 5 7 7 7 9 9 9 9 8 9 8 9 9 9 10 9 9 10 10 10 10 10 10 10 10 9 9 10 10 11 12 13 15 17 21 31 49 65 73 75 72 76 91 99 100 99 99 101 101 101 101
11 11 11 12 11 11 9 7 6 5 5 5 5 5 5 6 6 5 6 6 6 6 5 5 5 5 6 6 7 7 7 7 7 8 7 6 7 7 7 8 7 7 7 7 8 8 8 8 8 8 8 8 8 8 9 9 9 9 9 9 9 9 10 10 10 10 10 10 12 14 16 22 30 36 43 52 70 92 100 100 100 100 101 101 100 101
14 14 13 13 12 9 7 5 5 5 6 6 5 6 6 6 6 6 7 7 7 7 6 5 6 6 7 6 6 6 6 7 7 7 7 7 7 7 7 7 7 8 8 8 8 8 8 8 8 9 9 9 9 9 9 9 9 9 9 10 10 10 10 10 10 10 10 10 9 11 12 14 18 21 30 46 72 94 100 99 101 100 100 100 100 100
15 16 15 13 10 7 5 5 6 6 6 6 5 6 6 6 7 7 7 8 8 7 6 7 7 7 8 7 6 7 7 7 7 7 7 7 7 8 8 8 8 8 9 9 9 9 10 9 9 10 10 10 10 10 10 10 10 10 10 10 10 10 10 10 11 11 11 11 11 11 10 10 12 15 21 33 57 86 101 100 99 100 101 100 100 101
16 16 14 11 7 5 5 6 6 6 6 6 6 6 6 6 7 8 9 10 10 9 8 7 7 8 10 10 9 9 9 9 9 9 8 8 9 9 10 10 11 11 12 12 13 13 13 12 12 12 12 13 13 14 14 14 14 13 13 13 12 12 12 11 11 11 11 12 11 12 12 11 11 11 15 20 33 62 90 101 101 100 100 100 100 101
16 14 11 7 5 5 6 6 7 7 7 7 7 7 7 7 8 9 12 13 13 13 12 9 8 9 12 14 14 15 16 16 15 14 14 14 14 15 15 16 16 18 19 20 20 19 18 18 18 17 17 18 18 18 18 18 18 18 17 17 16 15 15 14 14 13 13 12 12 13 12 12 12 11 12 14 17 31 52 78 99 102 100 101 100 100
15 10 6 5 5 6 6 7 7 7 8 8 9 9 8 9 10 10 14 17 18 19 18 14 10 10 16 19 19 21 23 24 24 24 24 27 28 28 28 28 28 30 31 31 30 27 26 25 25 27 28 27 27 26 25 25 25 25 24 23 22 21 20 18 18 17 16 15 14 14 14 13 13 13 12 12 13 16 22 50 91 105 99 101 101 99
9 6 5 5 6 6 7 8 8 8 10 10 11 11 11 12 13 13 16 19 21 22 23 22 14 11 19 24 22 25 29 30 32 33 33 36 38 39 41 42 41 40 40 40 37 35 34 32 32 34 36 35 34 32 31 31 31 32 33 32 30 29 27 24 23 21 20 19 18 17 16 15 15 15 14 13 12 13 15 35 79 104 100 99 102 99
5 4 5 5 6 7 8 8 8 9 11 12 13 14 15 16 17 19 19 19 22 24 26 29 20 12 19 25 24 30 35 36 39 41 40 41 43 46 50 52 49 45 42 40 36 35 35 33 32 34 35 35 34 33 33 34 35 36 36 37 37 36 34 33 30 28 26 24 23 22 21 19 18 17 17 17 14 14 14 21 57 96 103 98 100 100
5 5 5 6 6 8 9 9 9 10 12 14 16 18 20 22 24 25 25 24 24 23 28 33 24 14 19 25 27 33 39 40 43 46 47 46 46 50 54 54 51 44 38 35 33 34 35 33 32 32 33 34 34 35 36 35 37 39 39 40 40 39 39 39 38 37 35 33 31 30 28 25 24 22 21 21 17 16 16 15 36 80 103 101 100 99
6 5 6 6 6 8 9 10 10 11 13 15 18 22 25 27 29 29 30 30 28 27 34 36 26 17 21 27 31 38 42 42 44 49 51 48 46 47 48 47 43 36 33 32 32 34 34 33 31 30 30 32 33 34 36 37 40 41 42 43 44 44 43 42 42 41 39 39 39 39 38 35 33 31 28 27 24 20 19 16 23 55 88 99 100 100
7 7 7 7 9 10 10 10 11 10 12 15 18 24 27 30 33 32 31 33 34 36 39 37 30 26 27 30 35 41 44 44 44 46 47 44 41 39 38 37 35 35 35 34 33 32 32 31 29 27 26 26 29 31 35 40 43 42 43 49 53 51 49 47 46 46 43 42 41 42 44 43 41 40 37 34 32 26 23 21 20 36 69 94 101 99
8 9 10 11 13 15 16 18 18 15 15 16 19 23 27 32 36 33 31 34 40 44 41 36 37 37 33 36 44 47 49 47 43 43 43 41 38 36 35 35 38 44 45 39 34 31 30 30 30 31 30 30 30 33 38 43 44 42 44 54 62 61 58 57 54 54 53 49 46 46 45 45 44 45 45 42 39 34 29 26 22 25 48 79 98 99
9 11 13 14 16 19 21 21 22 22 20 21 22 22 24 30 32 30 31 37 45 50 42 36 45 47 41 46 52 51 50 48 44 43 41 36 35 35 35 36 40 45 45 41 39 40 43 47 49 49 46 43 43 47 51 55 56 55 53 58 66 67 66 66 63 62 63 60 58 57 54 51 48 45 47 46 44 41 36 32 28 23 26 43 68 88
11 13 14 14 15 18 20 20 21 23 22 23 26 25 25 27 27 28 32 38 47 52 45 40 47 48 48 55 56 48 45 44 43 45 43 42 45 47 48 48 50 53 55 56 60 68 76 81 81 74 63 60 67 75 76 76 78 80 77 72 69 68 70 74 74 73 73 72 72 71 68 65 59 52 50 48 47 46 42 37 34 29 25 22 30 50
13 14 14 13 12 16 19 20 21 22 21 23 27 29 29 26 24 27 31 36 45 50 48 45 46 47 51 52 45 38 39 41 47 55 60 64 65 63 62 66 70 72 74 78 84 91 95 94 90 83 72 67 75 80 77 77 79 82 83 80 77 75 74 75 76 76 78 78 78 79 78 77 72 65 59 53 51 50 47 44 38 34 31 25 20 23
15 14 14 12 11 14 19 20 20 20 20 21 26 31 29 24 22 27 31 36 43 45 43 44 43 43 43 41 40 43 46 51 61 71 77 81 81 78 78 84 91 95 95 96 99 101 99 95 95 95 87 78 76 75 73 74 74 72 70 67 67 69 70 72 73 74 76 76 78 81 83 84 84 80 73 67 62 57 53 50 45 40 36 31 27 24
14 14 15 14 11 13 18 18 17 18 18 21 26 28 24 21 22 27 32 37 38 37 38 40 39 39 38 39 44 46 50 65 80 86 87 89 90 93 95 97 100 102 101 100 101 101 100 100 103 103 99 94 92 89 84 79 70 60 53 48 46 48 51 55 59 63 65 66 72 78 83 92 99 96 87 82 80 73 64 56 52 47 41 36 34 30
15 15 17 16 12 12 16 15 13 13 15 19 23 22 21 23 28 31 34 35 34 35 37 37 36 37 36 40 46 52 68 87 92 90 96 99 97 99 100 99 99 100 101 101 101 100 99 99 100 101 102 104 102 97 89 82 75 69 63 60 62 61 55 53 58 69 75 76 78 81 84 90 96 98 94 90 92 90 78 67 64 59 48 41 39 35
17 18 19 19 15 12 14 13 11 12 14 17 20 22 24 29 31 32 32 33 33 35 36 37 40 43 48 61 76 84 92 94 86 88 101 103 100 98 93 88 88 93 97 99 99 100 101 102 102 101 99 94 89 85 79 74 78 90 95 94 95 94 87 82 85 94 99 99 98 96 92 88 86 91 95 93 96 100 90 77 73 72 62 49 42 40
19 20 20 21 19 14 14 14 12 12 15 19 20 22 26 30 31 32 33 34 35 37 40 44 49 56 69 88 99 95 89 87 86 91 96 95 97 99 95 93 95 97 100 102 102 98 91 82 73 66 59 55 53 52 48 42 48 66 85 95 98 99 100 99 98 99 99 101 101 98 97 100 96 95 101 100 100 104 99 86 79 80 78 64 49 44
21 22 21 21 21 18 17 18 16 15 17 19 18 19 24 26 28 31 34 35 38 42 47 51 60 75 92 102 101 93 89 92 96 96 96 98 99 96 90 85 81 77 72 67 61 53 45 38 34 32 33 34 33 30 28 26 26 32 44 57 67 73 81 91 98 100 101 100 90 78 83 99 102 99 101 102 103 103 98 95 93 87 83 78 64 51
22 23 21 21 22 22 21 21 21 19 17 17 17 18 21 23 26 32 37 39 43 49 56 64 78 93 102 101 100 100 101 102 102 95 87 78 67 58 52 43 35 32 29 28 30 32 34 36 39 42 44 44 45 47 52 56 56 51 42 37 37 40 43 51 62 71 80 82 72 58 65 87 99 100 99 99 103 102 96 100 107 95 78 75 74 62
23 23 23 22 24 26 26 24 22 20 18 17 17 18 21 26 32 42 47 46 49 60 73 85 93 99 101 102 103 102 95 85 72 56 43 33 26 23 23 21 25 32 37 41 47 49 50 53 54 57 62 68 76 83 89 93 93 90 78 63 56 51 46 43 39 35 36 40 41 42 52 71 87 98 102 99 100 102 98 99 106 100 80 69 72 73
22 23 24 24 25 27 29 25 23 25 23 19 19 21 23 29 36 45 52 50 52 66 82 92 96 95 92 86 76 65 52 39 29 22 17 16 17 20 27 36 46 53 54 53 52 50 53 58 62 68 79 92 100 101 103 104 103 103 100 92 88 89 90 85 71 51 38 32 29 28 33 43 58 79 97 102 97 97 100 102 104 103 90 72 69 79
23 23 24 26 26 27 29 26 26 29 26 22 24 24 25 31 36 44 51 47 45 58 72 80 80 71 60 48 36 28 25 21 19 16 15 21 32 46 59 63 61 57 54 53 54 57 60 64 68 74 82 91 96 96 98 101 101 102 100 93 92 99 104 104 93 74 64 59 49 36 28 25 27 44 74 97 101 95 95 99 100 101 97 79 69 81
24 25 25 27 26 25 27 25 25 29 27 25 28 28 29 32 35 43 54 52 50 59 63 60 53 43 34 28 24 22 22 19 17 19 31 51 68 78 82 75 64 59 57 58 61 65 69 73 78 82 83 85 88 91 95 96 94 96 97 91 91 97 102 102 92 77 74 76 62 45 39 33 25 30 48 71 88 91 88 87 85 86 88 79 70 81
26 26 26 27 26 24 26 26 26 29 28 27 31 32 31 31 34 50 71 74 68 63 53 42 36 29 24 23 21 18 16 18 28 44 62 79 84 80 76 71 65 62 64 68 73 79 86 92 94 96 97 97 96 98 101 101 98 100 105 100 93 95 100 97 83 75 83 82 62 56 67 71 66 65 61 57 62 65 65 66 65 70 78 75 71 81
28 27 26 27 26 24 26 27 27 28 27 27 31 31 30 40 58 77 87 80 64 51 39 32 27 23 21 20 17 17 24 38 56 71 80 84 80 70 64 62 63 67 74 82 90 96 101 100 98 101 105 104 100 98 100 103 101 101 104 98 86 84 90 89 81 85 95 83 64 75 99 103 97 94 86 79 73 58 45 45 51 62 74 73 75 83
30 29 27 26 26 24 25 28 28 29 29 29 34 37 41 57 76 82 76 62 46 36 30 25 21 20 20 18 18 29 50 67 78 83 84 81 72 62 57 60 67 75 84 94 101 104 104 100 97 98 102 103 102 99 100 103 101 96 93 90 88 88 90 91 93 99 99 85 78 93 107 104 102 99 94 95 91 67 44 39 43 52 62 70 80 82
29 29 27 25 27 26 27 28 28 29 31 32 38 44 47 50 53 52 48 42 32 26 23 20 19 20 18 18 30 53 74 84 87 91 91 81 66 59 59 63 70 81 92 100 103 102 101 100 99 100 102 104 103 99 100 103 102 97 90 86 91 97 99 99 101 101 95 89 92 102 103 101 105 105 100 101 97 73 48 39 40 41 47 64 81 77
28 28 27 26 27 26 26 27 25 25 28 29 32 35 34 32 32 33 34 31 24 21 19 19 20 19 17 26 48 70 85 92 96 99 96 80 66 61 63 66 76 90 99 100 99 99 99 100 101 101 102 104 103 101 101 102 102 102 98 91 91 97 102 102 100 98 94 91 94 101 101 100 103 103 103 106 101 79 54 45 44 40 40 61 79 71
27 26 24 23 22 20 20 22 21 21 23 24 25 26 26 26 29 30 28 24 20 19 19 20 21 19 22 39 61 77 89 97 101 102 95 80 67 63 66 72 82 92 97 98 98 100 101 102 102 101 101 104 105 102 101 103 102 100 100 100 98 100 104 101 95 94 93 90 93 100 100 99 101 103 104 104 99 83 65 59 59 50 48 65 75 67
24 23 20 18 18 18 19 21 21 21 21 22 23 24 25 28 29 26 22 19 18 18 18 19 19 22 33 51 68 80 91 96 101 105 97 80 69 67 71 78 86 92 97 99 100 101 102 102 101 100 102 104 104 100 100 103 100 92 95 105 104 101 101 95 88 93 95 90 93 100 99 98 100 99 98 100 99 88 75 71 69 60 56 65 67 63
22 20 18 17 17 19 20 22 22 22 21 22 23 24 26 26 24 21 18 16 16 16 16 16 19 29 45 60 71 82 90 94 101 105 92 75 70 73 77 83 90 93 96 99 100 101 102 102 101 102 104 105 104 100 99 102 98 89 93 105 104 99 98 90 83 94 99 92 93 100 100 100 102 98 95 99 101 95 85 79 77 70 63 63 60 62
22 20 19 19 19 20 22 23 23 23 22 23 24 25 26 24 20 16 15 15 15 15 14 18 29 42 55 65 73 82 88 92 98 97 82 69 71 77 82 88 94 97 99 100 101 101 100 101 103 105 105 103 103 102 98 100 101 94 94 104 103 96 95 89 85 96 100 92 94 101 100 99 102 99 96 98 99 99 96 94 93 83 69 57 52 59
22 20 20 21 22 23 24 25 27 28 27 27 27 26 24 20 16 15 14 14 14 14 16 27 42 53 61 68 75 83 88 89 89 84 73 68 73 80 86 92 97 98 99 100 100 100 101 100 101 105 103 97 99 103 99 99 104 99 93 100 103 95 92 89 88 96 98 93 95 101 100 100 101 99 99 101 100 99 99 100 102 95 73 52 45 55
21 21 23 26 27 27 27 27 29 30 30 28 26 23 19 16 15 15 15 16 16 17 24 38 50 58 64 69 75 85 93 91 84 76 70 70 77 84 89 96 101 101 100 101 101 101 102 100 100 104 104 96 96 101 96 94 102 99 88 90 95 94 93 93 92 93 91 89 95 101 100 101 102 99 98 100 100 101 100 98 101 101 81 55 45 53
Wind_Speed
21 23 24 26 27 28 29 31 33 35 36 38 39 40 41 42 42 43 43 44 44 44 43 44 44 43 41 40 40 40 40 41 41 40 38 38 40 42 43 43 45 46 46 45 44 43 44 45 47 50 51 52 52 52 52 52 52 51 51 51 52 53 54 55 56 56 57 58 58 59 58 58 57 57 57 57 56 56 55 55 55 54 55 55 55 55
24 25 26 28 30 31 32 34 36 37 39 40 41 41 41 43 42 42 44 45 45 45 44 44 44 43 43 42 42 42 42 43 42 40 40 39 40 42 43 44 45 46 45 43 42 43 45 47 49 50 51 51 52 52 51 51 51 50 51 51 53 54 55 55 56 57 58 59 59 59 59 58 57 57 56 56 55 54 54 53 53 53 54 54 54 54
26 28 29 31 32 33 34 36 37 38 39 40 41 42 42 44 44 43 44 46 47 48 46 46 45 44 45 46 45 44 44 45 44 43 41 40 40 40 41 43 44 45 45 43 43 45 47 48 49 49 49 49 49 50 50 50 51 51 52 53 54 55 56 56 57 58 59 59 59 58 58 58 58 57 56 55 54 53 53 52 51 52 52 53 53 53
29 30 31 32 34 35 36 37 38 38 40 41 42 43 43 44 45 45 44 45 47 49 49 47 46 45 47 47 46 45 44 44 45 44 42 40 39 39 40 42 42 43 44 45 46 47 48 48 47 47 46 46 47 49 50 52 53 54 54 55 56 56 56 57 58 59 59 59 58 58 58 58 57 57 56 55 53 52 52 50 49 50 51 51 52 53
31 32 33 34 35 36 37 38 39 39 39 41 42 42 43 44 45 47 46 46 47 49 51 50 47 45 47 49 46 44 44 45 45 45 44 42 41 41 41 41 41 42 44 45 46 46 45 45 44 44 44 46 49 51 53 54 55 55 55 56 56 56 57 58 59 59 59 58 58 58 58 58 57 56 55 54 53 52 51 49 48 49 49 50 52 53
32 33 34 36 36 37 38 38 38 39 39 40 41 42 44 44 46 47 48 48 48 50 52 53 50 47 47 49 47 45 47 49 48 46 44 44 43 42 42 41 42 42 42 42 43 42 42 42 44 46 49 51 53 53 53 53 54 54 55 55 56 56 56 57 57 58 57 58 58 58 58 57 57 56 55 54 53 52 51 49 48 48 49 50 51 53
33 34 35 36 36 37 38 38 39 40 40 41 42 43 44 45 46 47 48 49 49 50 52 53 51 49 47 45 44 47 49 49 47 46 44 42 41 40 41 41 41 40 38 38 39 41 42 45 48 51 53 53 52 52 52 53 54 54 54 55 55 55 56 56 56 56 56 57 58 58 57 57 56 56 56 55 54 53 51 50 49 49 49 50 52 53
33 34 35 35 37 38 38 39 40 41 42 42 43 44 44 45 46 47 47 48 48 48 49 49 49 49 47 42 42 46 47 45 44 44 42 39 39 39 39 39 38 37 36 36 38 41 44 47 49 50 50 50 51 51 51 52 53 53 53 53 53 54 55 56 56 56 57 57 57 57 57 56 57 57 57 56 55 54 52 51 50 50 50 50 52 54
33 34 35 36 38 39 40 41 42 42 43 43 44 44 45 45 46 46 46 46 46 46 46 46 47 48 46 41 42 45 43 42 41 40 39 39 39 39 37 37 37 37 37 38 40 42 44 46 46 47 47 49 50 50 50 50 50 51 52 52 53 54 56 57 57 58 58 58 58 58 57 57 58 58 58 58 57 56 54 53 52 51 51 51 52 54
34 35 36 38 39 40 41 42 42 43 43 43 44 44 45 45 45 44 44 43 43 44 43 44 45 47 44 39 40 43 42 42 42 40 40 41 40 38 36 36 37 38 39 41 42 43 44 45 46 46 47 48 49 49 50 50 50 50 51 52 53 54 55 57 58 59 59 60 60 60 59 59 59 59 59 59 59 59 58 55 53 52 52 51 52 54
35 37 38 39 40 40 42 43 43 43 44 44 44 44 44 43 43 42 42 41 41 41 41 42 42 43 41 37 37 40 41 42 42 42 43 42 41 40 39 38 39 41 42 42 43 44 45 46 47 47 48 48 49 49 50 50 50 50 50 50 51 52 54 54 55 56 56 58 60 61 62 61 60 60 60 60 60 62 61 57 55 53 53 52 53 54
37 38 39 40 40 41 41 42 42 43 44 45 46 45 44 42 42 42 41 41 40 40 40 41 40 38 37 35 35 39 40 41 42 42 41 41 41 41 41 41 41 42 44 44 44 44 44 45 45 46 47 47 48 49 49 50 50 50 50 50 50 51 52 53 52 52 52 52 53 55 59 61 61 60 60 60 60 60 58 56 56 55 54 54 54 55
38 39 40 40 41 41 40 41 41 43 45 45 45 45 45 45 44 44 44 43 41 39 39 41 40 37 35 33 35 39 40 40 41 40 40 40 40 41 41 40 40 42 43 42 41 41 42 42 43 44 45 45 46 47 47 47 47 48 48 48 48 48 49 49 49 50 49 49 49 50 51 53 55 55 56 56 55 54 53 54 56 56 55 56 55 56
39 39 40 41 41 42 42 43 43 44 45 45 46 46 47 48 47 47 47 46 43 39 38 40 40 39 37 35 36 39 41 41 41 41 42 41 40 40 39 37 38 39 38 38 37 37 38 39 39 40 40 41 41 42 42 43 43 43 43 43 43 43 45 45 46 46 47 47 47 47 47 47 48 50 51 51 50 50 51 53 55 56 56 56 56 57
41 41 41 42 43 43 43 43 43 44 45 46 46 47 47 48 48 48 48 47 47 44 41 40 40 39 40 40 39 41 42 42 43 43 44 43 41 40 39 38 39 39 39 39 38 38 39 39 39 39 39 40 40 40 41 41 41 41 41 42 42 42 43 43 44 44 45 46 46 46 46 46 46 46 47 48 48 48 49 52 53 54 54 55 55 56
40 42 42 42 43 42 42 41 41 42 44 45 45 45 46 47 47 47 46 46 48 47 44 42 41 38 38 39 40 41 41 41 42 44 45 44 43 42 42 42 43 43 44 44 43 43 43 43 43 43 43 43 43 44 44 45 45 44 44 45 45 45 45 45 45 46 46 46 46 46 46 46 46 46 46 46 46 47 48 49 50 51 51 52 53 54
39 40 41 41 42 41 41 41 42 43 44 44 43 44 45 45 46 47 46 46 47 48 46 45 44 41 38 40 41 41 40 40 43 46 46 46 46 46 46 47 47 48 48 49 49 49 49 48 49 49 49 49 48 48 49 49 49 48 48 48 48 48 48 48 48 48 48 48 48 48 48 48 47 47 46 46 46 46 47 48 48 49 50 50 51 51
39 39 40 41 41 41 42 42 43 44 44 44 44 45 45 45 47 48 49 48 48 49 47 46 47 46 43 45 45 43 43 43 45 48 49 49 49 49 49 50 50 51 52 53 53 53 53 53 53 53 54 54 54 54 54 54 53 53 53 52 52 52 51 51 50 50 50 50 50 50 49 49 49 48 47 46 46 46 47 47 47 48 49 49 49 49
40 39 40 41 42 42 43 43 44 45 45 46 45 46 47 47 48 48 50 51 50 50 50 49 49 48 47 49 49 48 48 48 48 49 50 51 51 51 52 52 53 53 53 54 55 55 55 55 55 55 55 56 56 57 57 57 56 56 56 56 56 55 55 55 54 53 53 52 51 51 50 50 49 49 48 47 47 46 47 47 46 48 49 48 48 48
40 40 39 40 42 43 44 44 45 45 46 46 47 47 48 49 50 50 50 50 51 52 52 54 54 50 47 49 50 50 51 51 51 51 51 51 52 52 53 53 54 54 53 54 55 56 57 57 56 56 56 56 57 58 59 58 58 58 58 58 58 58 57 57 57 56 55 54 54 53 52 51 50 50 49 48 47 46 47 47 45 44 46 46 47 47
40 40 40 40 41 44 46 47 47 47 47 48 49 50 51 51 52 53 51 51 52 53 53 56 59 54 47 48 51 52 52 53 53 53 52 52 53 53 55 56 56 55 55 55 56 57 58 58 58 57 58 58 58 60 60 60 59 58 58 58 59 59 59 58 58 57 56 56 56 55 55 54 52 51 50 49 48 46 45 44 42 41 43 44 46 46
40 41 42 42 43 45 47 48 49 49 49 50 51 51 52 54 55 55 54 53 53 55 55 56 61 56 50 51 54 53 53 54 55 56 56 55 56 56 57 58 60 60 59 58 59 59 60 61 61 61 61 61 62 62 63 62 61 60 60 59 59 59 60 60 59 59 58 57 56 55 56 56 55 54 52 51 50 47 45 43 40 39 41 43 44 45
41 43 45 45 46 47 48 50 51 50 51 52 52 52 53 55 56 56 57 56 56 58 56 56 62 59 53 54 57 54 53 54 56 58 59 59 59 59 60 62 64 65 64 64 64 64 64 64 64 64 64 64 64 64 64 64 63 62 62 61 60 60 59 60 60 59 59 58 57 56 56 56 56 55 54 53 51 49 46 43 39 37 39 42 44 44
44 46 48 49 48 46 47 48 50 50 51 52 53 53 53 55 56 56 58 59 60 59 55 57 65 64 57 56 57 54 54 55 57 60 62 64 64 64 64 65 67 69 70 70 70 69 68 67 67 67 66 65 65 65 65 65 65 64 64 63 63 62 62 61 60 60 60 59 58 57 57 56 55 55 55 54 53 51 48 45 41 38 38 42 44 44
47 49 52 53 52 50 49 50 50 50 50 51 52 53 53 53 54 56 58 60 62 58 54 60 68 67 62 59 57 55 56 58 60 61 64 67 68 69 70 71 72 73 73 73 73 73 72 72 72 71 70 69 69 69 69 69 69 68 67 66 66 66 65 64 64 63 62 61 59 59 58 57 56 55 54 54 54 52 50 47 44 41 40 41 43 44
48 50 52 54 54 54 54 55 55 55 53 52 51 51 52 52 53 56 60 62 61 57 57 65 69 68 66 63 59 59 60 62 63 65 66 69 71 72 73 74 73 72 72 74 75 76 75 75 75 74 74 73 73 73 73 73 75 75 73 70 69 69 68 67 67 66 65 64 63 61 60 59 58 57 55 54 53 52 52 50 47 43 41 42 43 44
49 50 52 54 53 52 53 54 56 57 57 54 52 51 52 52 54 58 61 61 60 59 63 67 66 68 69 65 63 64 64 66 69 70 71 72 73 74 75 74 73 73 74 77 78 78 77 77 77 78 78 78 78 78 77 76 77 79 77 74 72 71 70 71 71 70 69 68 66 65 64 62 61 59 58 56 53 52 51 50 49 46 43 42 44 45
50 51 52 54 54 52 52 55 56 57 58 57 55 55 54 55 58 61 61 61 60 62 67 67 65 68 69 66 67 70 70 72 73 74 75 76 76 77 77 77 77 78 79 81 81 81 80 80 82 83 83 82 80 78 77 76 77 79 79 78 77 77 77 76 74 72 71 70 68 68 66 65 64 62 60 59 56 54 52 50 49 47 44 42 43 45
51 52 53 55 56 53 53 56 57 58 59 59 57 56 56 59 63 63 63 63 61 63 67 67 67 68 69 70 73 75 75 75 76 77 78 79 79 79 80 81 82 82 83 83 81 79 82 87 89 89 88 86 83 81 81 82 82 82 83 83 83 83 82 80 78 76 73 71 69 68 68 67 66 65 63 61 60 57 54 52 50 47 45 43 43 44
52 53 54 56 57 54 54 57 59 61 62 61 59 58 60 65 66 66 66 64 63 66 69 70 70 70 72 75 76 76 76 76 77 80 81 80 80 81 81 81 80 79 78 78 78 80 87 92 91 89 90 91 90 88 88 88 88 89 89 87 86 85 84 83 82 79 77 74 71 70 68 67 66 64 63 61 61 59 57 54 52 50 48 45 43 43
54 55 55 57 59 56 56 59 62 63 64 64 62 62 65 69 69 68 67 67 69 72 74 74 74 75 76 77 76 75 76 76 78 81 83 83 82 82 80 78 78 78 79 81 83 84 84 83 81 82 87 90 91 91 91 94 95 93 90 86 83 81 79 79 78 77 77 75 74 72 69 65 62 61 61 60 59 59 58 56 54 52 50 47 45 44
55 56 56 58 60 59 59 62 64 64 65 65 65 67 70 71 71 70 71 72 74 76 76 77 78 79 80 79 77 76 76 77 79 82 83 82 81 81 82 83 85 87 89 89 86 82 79 80 83 87 91 95 97 98 99 98 95 90 85 82 79 76 73 72 71 69 68 67 68 69 68 65 63 61 60 60 59 58 57 56 55 53 51 49 47 45
56 58 58 60 62 62 62 64 66 66 66 66 68 71 72 72 73 74 74 76 78 79 79 81 81 81 81 79 77 77 77 80 81 81 81 81 83 85 88 89 90 91 92 91 87 83 85 91 97 102 104 106 106 104 102 97 89 83 79 78 76 73 72 71 68 64 61 60 61 62 64 65 65 63 60 60 60 58 57 56 55 53 51 49 48 46
57 59 60 62 64 65 65 66 67 68 68 68 70 72 74 74 75 76 78 81 82 80 80 80 79 80 80 78 79 81 82 84 83 80 80 83 87 90 91 90 90 90 91 92 92 94 99 104 108 108 108 105 103 100 97 92 87 83 81 78 77 74 71 70 68 65 63 63 63 63 64 65 65 64 61 59 59 56 54 55 55 53 51 49 47 45
58 60 61 63 65 67 68 68 70 70 69 70 72 73 75 76 78 79 80 82 82 81 81 80 79 79 79 78 81 85 86 86 85 83 83 86 89 91 93 94 94 94 95 96 97 99 100 99 98 95 92 90 87 85 82 79 78 78 78 79 81 80 77 75 73 71 70 69 69 69 69 68 66 63 59 57 56 53 51 52 53 52 51 49 48 46
59 61 63 64 65 67 68 69 71 72 72 73 75 76 78 79 81 81 81 83 84 83 83 81 80 80 80 80 83 86 87 88 89 88 87 88 90 91 93 92 91 90 89 88 86 85 84 81 80 78 77 75 72 70 68 67 66 67 68 70 72 74 75 76 77 77 78 79 78 74 70 70 69 66 60 56 54 52 51 52 52 51 50 48 47 46
60 62 64 65 66 68 69 71 74 75 76 78 80 81 83 84 83 81 81 83 84 82 81 81 81 81 82 83 85 87 89 92 93 91 88 87 86 85 83 81 78 77 76 75 74 74 73 72 70 69 67 65 62 61 60 59 60 61 61 60 59 59 60 62 65 69 73 77 78 74 70 70 71 69 64 59 54 52 51 52 52 52 51 48 45 44
61 63 64 66 68 68 71 75 77 78 80 83 84 86 87 86 84 81 81 84 85 83 82 82 83 84 86 88 90 92 94 96 96 93 89 85 80 75 72 70 70 70 71 71 70 69 67 66 64 63 61 58 56 56 56 56 57 58 58 56 53 51 51 51 52 53 55 58 61 63 65 67 70 70 67 62 57 54 52 53 53 52 51 48 44 41
62 64 65 67 69 70 72 76 78 79 83 86 88 89 90 89 87 84 84 88 90 88 86 87 88 90 92 94 95 96 95 96 95 89 82 75 70 67 68 69 69 68 67 66 65 65 64 62 61 60 59 56 55 53 53 54 55 56 56 56 52 49 49 49 49 48 47 47 47 48 51 55 61 65 66 65 61 57 54 55 54 53 52 50 45 40
64 66 67 68 70 72 74 78 80 82 86 89 90 92 93 92 91 89 89 92 94 92 90 92 93 95 95 94 94 92 90 89 86 78 70 66 65 66 68 69 68 65 63 62 61 61 61 60 59 59 58 57 56 54 53 55 57 58 59 58 53 49 49 48 48 49 48 46 45 42 40 41 45 50 56 61 63 61 58 57 57 57 55 52 46 40
65 67 69 70 72 75 77 80 82 84 88 91 92 94 97 97 95 92 89 91 93 93 93 95 95 95 94 91 89 87 81 74 69 65 63 64 65 66 65 64 63 62 62 62 61 61 61 60 59 58 57 56 54 54 54 56 58 58 58 56 52 50 49 48 48 49 48 47 44 39 35 34 34 37 42 49 56 61 61 60 59 57 55 52 46 39
67 68 71 72 75 78 79 82 86 88 92 94 95 97 100 97 92 89 87 89 93 95 96 96 95 92 90 86 82 75 67 61 59 60 62 63 64 63 62 61 60 60 60 61 61 60 61 60 58 57 56 54 52 51 51 52 54 54 52 50 49 49 49 48 47 47 46 44 39 33 31 31 31 32 34 37 44 51 53 54 54 53 51 48 42 36
68 70 72 74 77 81 83 85 89 92 95 98 97 98 98 93 88 88 90 93 97 98 96 95 92 88 83 78 70 62 58 57 58 61 62 63 62 61 60 59 59 59 60 60 59 59 60 60 58 57 56 53 50 50 51 52 54 54 51 48 46 46 45 43 42 42 42 39 32 28 28 29 29 31 32 34 38 41 40 41 44 46 46 43 37 32
68 70 74 77 80 84 86 88 91 94 98 100 98 97 97 96 96 96 98 100 101 98 95 92 87 81 75 68 61 56 56 58 60 62 63 62 60 59 58 57 57 57 58 58 58 59 59 59 58 57 55 52 50 50 51 52 55 54 50 45 42 41 39 37 38 38 37 32 28 25 25 26 28 31 32 32 35 34 32 32 33 37 40 38 32 29
69 71 75 79 82 85 88 90 93 96 98 99 99 99 101 103 103 102 102 101 99 95 91 86 80 73 65 59 56 55 57 59 61 62 62 61 59 57 56 55 54 55 56 57 58 59 59 59 58 56 54 52 49 48 49 51 53 52 45 39 37 37 36 35 35 34 32 29 26 23 22 24 28 30 29 30 31 28 28 28 27 28 31 31 28 27
71 73 77 81 84 87 89 91 93 96 98 99 101 102 104 105 105 104 102 99 96 91 86 79 73 67 60 55 55 57 58 60 62 62 61 60 58 56 54 53 52 53 55 57 58 61 62 61 59 56 54 52 48 46 47 49 49 46 41 37 35 34 33 32 32 30 29 27 23 21 21 24 26 26 25 24 23 22 23 25 24 23 24 25 26 27
72 76 80 83 87 89 92 94 96 98 100 102 104 105 106 107 105 103 100 96 92 86 79 72 67 61 56 54 57 59 60 62 63 63 61 60 57 55 54 53 52 52 54 57 59 61 63 63 60 56 55 52 48 45 45 47 46 43 40 37 34 32 30 31 31 29 27 25 21 19 21 23 24 22 20 18 16 16 17 20 22 21 20 23 26 28
77 81 85 87 89 92 95 97 99 101 102 104 106 108 109 108 106 102 98 93 86 79 71 64 58 55 53 54 57 61 62 62 63 63 61 58 56 55 53 53 53 53 55 57 59 61 63 63 60 56 54 52 49 45 43 44 44 41 38 36 33 30 29 30 30 29 26 23 19 17 18 22 22 19 16 15 13 10 10 13 17 19 19 22 27 27
84 87 90 92 93 95 98 101 104 106 107 107 108 109 109 107 104 100 94 87 79 72 64 56 49 48 51 53 57 61 62 61 61 60 58 56 55 54 53 53 54 55 56 58 59 61 63 63 60 56 53 52 50 46 42 42 42 39 36 33 30 28 28 29 30 29 24 19 16 15 17 19 19 16 15 13 9 5 5 8 11 15 19 23 27 27
87 91 94 96 98 100 103 105 108 110 111 111 110 110 108 104 100 94 87 79 72 65 58 50 45 45 48 51 55 59 60 58 58 57 55 53 53 52 52 53 54 55 56 58 59 60 62 62 59 56 54 53 51 47 42 40 40 37 33 30 28 26 26 28 29 27 22 15 13 14 16 16 15 14 13 11 7 6 6 7 10 14 18 22 26 26
90 94 98 101 103 104 105 107 108 110 111 111 111 110 105 99 93 86 79 73 67 59 51 48 47 49 51 52 54 58 60 58 57 55 52 50 49 50 50 51 53 55 56 57 59 60 61 61 59 56 54 53 52 49 44 40 38 35 31 27 25 24 24 26 27 26 19 11 10 12 14 14 12 11 11 9 8 9 8 9 12 15 16 18 23 25
Wind_Direction
317 315 314 313 311 308 306 307 308 308 308 308 308 308 309 308 310 311 311 310 309 309 310 310 311 312 310 307 305 303 301 299 298 297 295 292 292 292 290 289 289 290 291 292 292 291 290 291 291 292 295 297 298 297 294 292 291 290 290 293 295 297 299 299 300 300 300 300 300 299 300 300 300 301 302 302 303 303 303 303 303 303 302 302 301 301
313 311 310 310 309 308 307 309 310 311 311 312 311 311 312 311 311 312 312 311 310 310 310 310 310 311 309 306 304 302 299 297 296 295 294 292 293 292 291 290 290 291 292 293 293 294 295 295 296 297 299 299 298 297 296 295 293 292 292 294 296 297 298 299 300 301 301 301 301 301 301 302 302 302 302 302 303 303 303 304 304 303 302 301 301 300
312 310 310 311 312 311 311 313 314 315 315 313 313 313 313 312 312 312 312 312 311 310 309 308 309 310 307 306 305 302 299 298 297 296 294 294 294 292 291 292 294 295 296 296 295 296 297 299 300 300 300 299 299 299 299 298 297 296 296 296 297 297 298 299 299 300 301 301 302 302 302 302 302 302 302 303 304 304 304 304 304 302 301 300 300 299
315 314 315 315 315 315 315 316 316 316 316 315 315 316 316 316 315 314 314 314 314 313 311 310 311 310 306 306 305 303 302 300 299 298 298 297 297 296 296 297 298 299 300 301 301 300 300 300 299 298 299 299 299 299 300 300 299 299 298 298 298 298 298 299 300 300 301 301 301 301 301 301 302 302 302 303 304 304 305 305 304 301 300 299 299 299
319 318 318 318 318 318 318 318 317 318 320 320 320 320 320 320 319 318 317 317 317 315 312 311 312 310 306 306 306 304 302 299 298 299 300 301 301 301 301 302 302 303 304 305 304 302 300 298 296 295 296 298 299 300 300 300 300 300 300 300 300 300 300 300 300 300 300 300 300 300 301 301 301 302 302 303 304 304 305 305 303 301 299 299 298 298
320 320 321 321 322 322 321 322 322 322 323 322 322 322 322 321 321 321 320 319 318 316 313 313 313 310 309 308 306 304 302 300 302 304 306 306 306 305 305 305 306 306 307 306 303 300 299 299 300 300 300 301 301 301 301 301 301 301 302 302 301 301 301 300 300 300 300 300 300 301 301 301 301 301 302 303 303 304 304 304 303 301 300 299 298 298
324 325 325 326 326 326 325 325 324 324 323 323 323 323 323 323 323 323 322 321 320 319 317 316 315 312 311 309 306 304 305 307 310 311 312 311 310 309 309 309 309 309 309 307 303 299 298 300 302 304 304 303 303 302 302 301 301 301 301 301 301 301 301 301 301 301 301 300 301 301 301 301 301 302 302 303 303 303 304 303 302 301 300 300 298 297
329 328 328 328 328 327 326 325 324 324 324 324 324 325 325 325 325 325 326 325 324 323 321 318 316 313 313 313 309 308 310 313 314 313 313 311 309 309 310 311 311 311 310 306 302 299 299 301 303 304 305 304 303 303 303 302 302 302 302 302 302 302 302 302 302 301 301 301 301 301 301 301 301 302 302 302 303 303 303 302 301 301 300 299 297 296
330 329 329 329 327 326 325 324 324 324 325 326 327 328 328 328 329 330 330 329 327 326 323 320 319 318 320 321 316 313 314 314 312 311 310 309 309 311 312 313 314 313 311 308 305 304 304 304 305 305 305 305 305 305 305 304 304 303 303 303 303 303 303 303 302 302 302 302 302 302 301 301 301 302 302 302 302 302 302 301 300 299 299 297 296 295
329 328 327 327 327 326 326 326 327 327 328 329 330 331 332 333 334 333 332 331 330 329 328 328 328 327 328 327 319 316 316 313 312 312 312 314 315 316 316 315 314 312 310 309 308 308 307 307 307 306 306 305 305 306 305 305 304 304 304 304 304 304 303 303 302 301 301 300 300 300 300 300 301 300 300 301 301 301 300 298 298 298 297 296 295 294
327 327 327 327 327 327 328 329 331 331 331 331 332 334 335 336 335 334 334 334 333 335 335 335 337 336 334 330 322 319 318 317 318 319 320 321 320 319 318 316 315 312 310 309 309 309 309 308 308 308 307 306 306 306 305 305 305 304 304 304 304 304 304 304 304 303 302 300 299 298 297 296 297 298 299 299 300 300 298 296 295 296 295 294 294 294
328 327 327 327 327 329 332 333 334 334 334 335 336 337 336 335 335 335 336 337 339 343 343 341 343 343 339 332 325 322 322 323 325 325 324 324 323 322 321 320 319 315 312 311 310 309 308 307 307 306 306 305 305 304 304 304 304 304 304 304 304 303 303 304 305 305 305 303 302 301 299 295 294 295 297 298 299 300 298 294 294 293 293 293 293 294
328 328 329 329 331 333 335 336 336 336 337 339 339 339 338 338 339 339 339 341 344 349 349 345 346 348 342 333 328 327 326 326 328 327 328 330 329 327 327 325 320 314 312 311 310 308 306 305 305 304 305 305 305 305 305 306 306 306 306 306 305 305 304 305 305 305 306 306 306 306 305 300 297 296 297 297 299 302 300 296 294 293 292 293 294 294
328 329 331 333 336 339 339 338 339 339 340 341 342 343 344 344 344 344 343 343 343 347 349 346 346 347 342 335 333 332 330 330 330 328 330 332 331 329 328 323 316 313 313 313 312 311 310 309 308 308 309 309 308 309 309 309 309 309 310 310 310 310 309 309 308 308 308 308 308 307 307 305 302 300 299 299 300 302 301 298 296 295 294 294 295 295
331 333 336 338 341 342 342 342 343 343 342 343 344 345 345 345 345 344 342 340 339 343 347 346 344 343 340 336 335 334 333 333 331 328 328 330 329 326 323 318 316 316 316 315 314 313 312 311 310 310 310 310 310 310 309 309 309 310 311 312 313 313 314 314 314 313 312 311 310 309 308 306 305 302 301 300 301 302 301 299 298 296 296 295 295 294
338 339 341 343 343 343 343 343 343 343 342 342 344 344 344 344 342 340 339 336 335 337 341 343 341 340 334 331 332 332 332 331 327 324 325 325 322 320 318 316 315 315 314 313 313 311 311 310 309 309 308 308 308 307 307 307 307 308 308 310 311 311 313 314 315 316 316 315 314 313 312 310 308 306 303 302 301 301 301 300 299 297 296 294 293 294
341 342 342 343 342 343 345 344 343 343 342 341 342 342 342 342 338 336 334 333 332 332 337 339 336 335 329 324 327 327 325 324 321 320 320 319 317 316 315 314 313 313 313 312 312 311 310 309 308 308 308 307 307 306 306 305 305 306 306 306 307 308 309 311 312 313 314 315 315 315 315 314 312 310 307 305 302 301 301 300 299 296 294 293 293 294
343 343 341 341 343 345 346 344 342 342 341 340 340 340 340 339 336 334 332 332 331 329 333 334 331 332 329 324 325 324 320 319 317 317 317 316 316 316 315 314 314 313 313 313 313 312 312 311 309 309 309 308 308 308 307 307 307 307 306 306 306 306 307 307 308 309 309 310 311 312 313 313 313 312 310 308 304 302 301 300 298 296 294 294 293 294
343 343 342 342 344 345 345 343 341 341 340 338 338 338 337 336 335 333 332 332 331 329 330 330 329 332 330 326 327 327 323 322 319 317 317 316 316 316 315 314 314 314 314 314 314 313 312 311 310 310 309 309 309 308 308 307 307 307 307 306 306 306 306 305 305 306 306 306 307 308 309 309 310 310 309 308 306 303 301 299 299 298 297 295 295 296
343 344 344 344 344 343 342 342 341 339 338 338 337 337 336 335 332 331 332 331 329 328 328 327 327 332 333 328 328 328 325 323 321 319 319 317 316 315 314 313 312 312 313 312 312 311 310 309 309 310 310 309 308 307 307 306 306 306 306 306 305 304 304 304 303 304 304 304 305 305 305 305 306 306 306 306 306 305 302 300 299 299 297 295 296 296
343 344 345 343 341 340 340 341 340 338 337 338 338 337 336 334 331 330 330 330 328 327 328 325 324 332 336 329 326 327 324 323 321 319 318 316 315 314 313 311 309 309 309 308 309 308 307 306 307 308 309 308 307 305 304 304 304 304 304 304 304 303 302 301 301 301 301 301 302 302 302 303 303 303 304 304 304 304 302 300 298 297 296 294 295 296
343 343 342 341 339 340 340 339 338 337 337 337 337 337 336 333 330 329 329 329 328 327 327 323 321 330 337 328 325 326 324 322 320 317 316 314 313 313 312 310 308 307 306 306 306 306 305 305 305 306 306 306 305 303 303 303 303 303 304 303 303 302 301 300 299 298 298 297 298 299 299 299 300 300 301 302 302 301 300 298 295 294 295 294 293 294
342 341 340 339 339 340 340 337 336 335 336 336 337 338 337 333 330 328 328 328 328 326 326 320 318 327 333 326 324 326 323 320 317 315 314 312 312 311 310 309 307 307 307 307 307 307 305 305 304 303 303 303 303 302 301 302 302 302 303 302 301 300 300 299 298 297 297 296 296 295 295 296 296 297 298 299 300 299 298 297 292 290 292 292 290 290
340 339 338 336 337 339 338 334 333 334 335 336 338 339 337 333 329 328 328 326 325 326 325 317 317 326 329 324 323 323 318 315 313 312 311 311 311 310 309 308 307 307 308 308 308 307 306 305 303 301 300 300 299 299 299 299 299 299 299 299 299 298 298 297 296 296 295 294 294 293 293 293 294 294 295 296 298 298 297 295 291 286 285 288 289 288
340 339 336 335 335 337 337 333 331 333 335 337 340 340 336 332 329 327 327 323 323 326 323 315 319 325 325 322 322 319 314 311 310 310 310 309 309 309 308 308 308 308 307 307 306 305 304 303 301 300 299 298 297 297 296 297 296 295 296 297 297 296 296 295 295 294 293 292 292 291 291 292 291 292 293 293 294 295 295 295 292 286 281 283 288 289
338 337 336 334 335 338 338 335 332 333 336 339 341 339 335 331 328 326 325 322 323 323 319 318 321 322 322 322 321 316 312 310 311 311 309 309 309 309 309 309 307 305 304 303 303 303 302 301 300 299 298 298 297 297 297 297 296 295 294 295 295 294 294 294 294 294 293 292 292 291 291 290 290 290 290 290 291 292 292 293 292 289 282 278 281 286
337 337 336 334 336 338 337 333 332 333 335 338 339 336 333 329 327 326 324 323 322 318 317 321 321 319 320 321 317 314 312 312 313 312 310 310 310 309 309 307 305 303 302 303 304 304 303 302 301 300 299 299 298 297 297 297 296 296 295 295 294 293 293 294 293 293 293 292 292 292 291 290 289 289 288 288 288 288 288 289 290 290 287 282 279 279
336 336 336 334 336 338 336 333 333 333 334 337 338 335 332 329 327 326 324 324 321 316 317 321 320 318 319 317 313 314 314 314 314 312 311 311 311 310 309 308 307 306 305 306 306 306 305 304 303 302 301 300 299 297 295 295 295 295 295 294 293 292 292 292 291 291 290 290 290 290 290 290 289 288 288 287 287 285 285 285 285 287 287 286 283 280
335 335 336 334 336 339 337 333 333 333 334 336 336 334 331 328 327 326 325 324 321 317 318 319 319 318 316 313 314 316 316 315 314 311 311 311 311 310 309 309 309 308 307 306 305 304 304 303 302 301 301 300 298 295 294 293 293 292 291 291 290 290 290 289 289 288 287 287 287 287 288 288 287 287 287 287 286 285 283 282 282 282 282 282 283 282
335 335 336 335 336 339 338 333 332 333 334 335 335 332 329 327 326 326 326 324 321 318 318 319 318 317 315 315 316 316 315 313 312 310 310 310 309 308 308 308 306 303 301 300 300 299 300 300 298 297 298 298 297 294 293 292 292 291 290 289 288 287 286 286 286 286 285 285 285 285 285 285 285 286 286 286 285 284 283 282 281 280 279 279 279 280
336 336 337 335 335 338 337 332 331 332 334 335 334 330 327 326 326 327 325 323 321 320 320 319 318 316 315 315 315 314 313 311 310 309 309 308 308 308 307 306 302 299 298 298 297 296 295 294 292 291 292 293 293 292 292 292 293 293 292 291 290 288 287 286 285 284 284 283 282 282 282 283 284 284 284 284 284 283 283 282 281 280 278 278 278 279
336 337 337 335 334 335 335 331 330 332 332 333 331 328 326 327 328 328 326 323 322 321 320 318 317 316 316 315 314 313 312 309 308 308 309 309 309 307 306 304 302 301 300 297 294 293 293 293 294 294 294 294 294 294 295 295 295 294 294 293 292 292 291 290 288 287 286 285 283 282 281 280 280 280 281 282 282 282 281 281 281 280 278 277 277 278
337 337 337 335 334 334 333 331 330 331 331 331 330 328 328 329 328 327 324 322 321 321 320 319 317 316 316 314 312 310 309 308 309 310 310 309 306 303 302 301 301 299 296 292 290 290 292 294 295 296 295 295 295 295 295 295 293 291 289 288 288 289 289 289 288 286 285 285 286 285 284 282 280 278 279 279 279 280 280 280 280 280 279 278 277 277
338 337 336 336 334 333 332 330 330 331 332 332 330 329 328 328 327 326 324 322 321 320 319 318 317 316 315 313 310 308 308 308 308 308 307 304 303 302 302 301 299 296 293 291 290 291 292 293 293 293 293 294 295 295 295 295 292 288 284 282 282 283 283 283 282 281 281 283 285 286 285 284 281 279 278 277 277 277 278 278 279 278 279 279 278 277
338 337 336 335 333 332 332 331 331 333 333 331 329 328 327 326 325 325 323 322 321 320 319 318 317 316 313 310 308 308 308 307 307 306 306 304 303 302 301 300 298 296 294 294 294 294 295 296 296 297 298 298 299 300 300 300 297 293 289 285 284 283 282 280 280 278 276 279 283 285 283 281 278 276 274 274 275 277 277 277 278 278 279 280 280 278
337 336 335 335 333 332 332 331 331 332 331 330 329 328 327 326 326 325 324 322 321 320 319 318 316 313 310 308 308 308 307 306 305 305 305 304 303 302 302 302 302 301 301 301 301 302 304 305 306 307 307 307 308 308 309 309 308 304 300 296 293 291 288 285 284 282 279 279 282 283 280 276 274 273 270 269 271 275 276 276 277 279 280 281 281 281
337 336 335 334 333 332 332 331 331 330 330 330 330 330 330 329 329 327 325 323 321 319 317 315 314 312 310 309 308 307 305 305 305 307 308 308 307 307 307 308 308 309 309 310 310 311 312 314 314 314 313 313 314 315 316 316 316 314 312 310 307 304 300 295 292 288 285 283 282 280 276 272 271 270 268 266 267 269 272 273 275 279 282 282 284 284
337 336 335 334 333 333 332 331 331 331 331 331 332 332 331 330 329 327 323 320 319 317 315 314 312 311 310 310 310 310 311 311 313 315 316 315 315 315 314 314 315 316 317 317 318 318 319 319 318 317 315 314 314 315 316 317 316 315 314 315 315 313 310 307 302 298 293 290 285 280 275 272 270 269 267 265 264 265 267 269 272 276 280 282 285 286
336 335 334 334 334 333 332 332 332 331 331 331 332 331 331 329 327 324 320 318 318 316 315 314 313 314 314 315 316 317 317 317 317 319 320 320 321 322 321 321 322 323 323 323 323 323 323 322 321 319 316 313 311 311 311 310 309 308 309 311 312 310 308 307 308 308 306 303 297 288 279 273 270 268 267 264 264 264 265 267 270 273 278 281 284 285
336 335 335 334 334 334 333 333 333 332 331 332 332 331 329 327 325 323 320 318 318 318 317 317 318 319 320 320 320 320 319 319 320 322 325 326 327 327 325 325 325 326 327 328 328 328 327 326 325 322 319 317 313 310 307 304 303 303 304 306 307 305 304 305 307 310 311 310 305 296 286 278 272 269 267 265 263 262 263 267 270 272 274 278 282 283
336 335 335 334 334 335 335 334 334 333 332 332 331 328 327 326 324 323 320 319 319 320 321 322 322 323 323 322 321 321 321 322 323 326 328 329 328 327 327 327 328 329 330 331 331 331 329 328 327 326 324 322 318 313 308 305 304 303 304 305 305 303 302 304 307 309 310 311 308 301 294 287 281 274 270 267 264 262 262 265 269 270 272 275 279 279
336 336 336 335 335 336 336 335 334 333 332 332 330 327 326 326 325 322 320 320 321 323 323 324 324 324 323 322 322 322 323 326 327 329 330 330 329 329 329 330 331 332 333 333 333 332 330 329 329 328 327 325 322 319 315 312 310 308 306 305 305 304 303 305 307 309 310 310 308 306 304 301 294 286 280 274 269 263 258 259 261 264 267 271 275 275
336 336 336 336 336 337 337 336 335 333 332 331 329 328 327 326 324 322 321 322 324 325 325 324 324 324 324 323 324 325 327 330 331 331 331 331 331 331 331 333 334 335 336 335 335 334 331 330 330 329 328 327 326 325 322 318 316 314 310 306 305 306 307 307 308 310 312 311 309 310 312 313 311 305 298 288 278 265 253 248 251 255 261 267 270 271
337 336 336 337 338 338 338 337 335 333 331 330 329 327 325 324 323 323 323 324 325 325 325 325 325 325 325 324 325 327 330 332 333 333 332 332 332 332 333 335 337 337 338 338 337 335 333 331 331 330 329 328 326 324 321 319 319 319 316 310 306 308 309 309 310 313 314 311 309 312 317 320 320 314 306 298 288 270 248 236 239 246 254 260 264 267
337 337 337 338 338 338 337 336 334 332 330 328 326 324 322 322 322 323 324 325 325 326 326 326 326 327 326 326 327 329 333 334 334 333 332 332 333 333 334 337 339 339 339 340 339 338 335 333 332 331 329 328 326 323 321 321 321 322 320 314 309 310 312 313 315 317 316 311 307 310 319 324 323 317 309 304 296 274 244 227 225 234 245 252 257 263
337 338 338 338 337 337 335 334 333 332 330 327 325 324 323 323 324 325 326 326 327 327 328 328 328 328 328 328 329 331 334 335 334 334 334 333 334 335 336 338 340 340 341 341 341 340 338 336 335 333 331 330 329 325 323 323 323 323 321 317 313 314 317 319 320 321 319 313 308 308 316 324 327 323 316 311 301 275 244 225 216 221 234 245 252 261
338 338 337 337 336 335 335 333 332 332 331 329 327 325 325 326 327 328 328 328 328 328 329 330 329 329 330 330 330 332 335 336 336 336 336 335 334 335 337 338 340 342 342 342 341 341 340 338 337 334 332 331 329 326 322 322 323 322 320 318 316 317 320 321 323 326 323 315 307 309 318 328 330 325 320 316 306 281 252 230 215 213 224 239 250 260
339 338 337 337 336 336 335 333 332 333 333 331 329 327 327 328 329 329 329 328 328 329 330 331 331 331 332 333 333 333 335 337 337 336 336 335 334 335 336 338 339 342 343 342 342 341 341 340 338 335 333 331 329 326 322 322 323 322 319 318 317 319 321 321 325 330 327 315 308 314 326 331 331 326 320 316 309 293 266 242 224 215 221 238 249 258
339 339 338 337 336 336 336 334 333 333 334 333 330 328 328 329 330 330 329 329 330 332 332 333 333 333 333 335 335 335 336 337 337 336 336 335 335 336 337 338 340 342 343 343 342 341 341 341 339 335 333 332 331 328 325 323 324 322 318 316 317 318 321 323 327 334 331 315 308 321 332 334 332 328 323 318 306 282 273 274 255 230 224 237 249 257
340 339 338 337 337 338 337 336 333 332 331 331 330 329 330 331 331 331 330 330 332 335 335 334 335 335 336 337 338 337 336 336 336 336 336 335 336 337 339 339 341 343 344 344 343 342 342 341 340 337 334 333 332 331 327 325 325 322 316 314 315 317 321 324 328 336 335 320 313 329 339 340 337 332 327 323 303 269 266 282 270 244 233 239 248 256
340 340 339 339 339 338 337 335 332 330 330 330 329 329 331 332 332 331 331 333 335 337 337 336 336 337 339 341 341 339 337 336 336 336 336 336 337 338 339 341 341 343 345 345 343 343 342 342 341 339 336 335 334 333 329 325 323 320 315 311 311 315 320 324 329 337 339 325 321 338 343 342 342 337 332 329 314 294 282 269 257 249 244 245 248 255